Orbital Elements at Epoch 2459000.5 (2020-May-31.0) TDB
Reference: JPL 16 (heliocentric ecliptic J2000)
Element | Value | Uncertainty (1-sigma) | Units |
e | .2508058383827335 | 1.0882e-07 | |
a | 2.537815581162872 | 1.5821e-08 | au |
q | 1.901316616668554 | 2.8268e-07 | au |
i | 5.360064342063753 | 1.0602e-05 | deg |
node | 297.3628589290511 | 3.6411e-05 | deg |
peri | 332.3059644602105 | 4.2378e-05 | deg |
M | 91.59488154800539 | 1.5797e-05 | deg |
tp | 2458624.786136329281 (2019-May-21.28613633) | 6.6095e-05 | TDB |
period | 1476.687219149575 4.04 | 1.3809e-05 3.781e-08 | d yr |
n | .2437889319630762 | 2.2797e-09 | deg/d |
Q | 3.174314545657191 | 1.9789e-08 | au |
|
| | Orbit Determination Parameters
Additional Information
|